This is the latest recevied weather packets stored in our database for station/object K7AEL. If no packets are shown the sender has not sent any weather packets the latest 10 day(s).
| Time | Temp. | Humidity | Pressure | Rain* | Wind** | Luminosity | Snow |
|---|---|---|---|---|---|---|---|
| 1777403150 | 27.22° C | 19% | 1017 hPa | 0 mm | - | 738 W/m² | - |
| 1777402846 | 27.22° C | 19% | 1017.1 hPa | 0 mm | - | 737 W/m² | - |
| 1777402543 | 27.22° C | 19% | 1017.4 hPa | 0 mm | - | 738 W/m² | - |
| 1777402241 | 27.78° C | 20% | 1017.5 hPa | 0 mm | - | 736 W/m² | - |
| 1777401936 | 27.22° C | 20% | 1017.5 hPa | 0 mm | - | 735 W/m² | - |
| 1777401634 | 27.22° C | 19% | 1017.8 hPa | 0 mm | - | 732 W/m² | - |
| 1777401331 | 26.67° C | 20% | 1017.6 hPa | 0 mm | - | 731 W/m² | - |
| 1777401027 | 27.22° C | 18% | 1017.8 hPa | 0 mm | - | 727 W/m² | - |
| 1777400723 | 26.11° C | 19% | 1017.9 hPa | 0 mm | - | 721 W/m² | - |
| 1777400421 | 26.11° C | 19% | 1017.6 hPa | 0 mm | - | 720 W/m² | - |
| 1777400120 | 26.11° C | 21% | 1017.8 hPa | 0 mm | - | 712 W/m² | - |
| 1777399818 | 26.11° C | 21% | 1017.8 hPa | 0 mm | - | 710 W/m² | - |
| 1777399515 | 25.56° C | 21% | 1017.8 hPa | 0 mm | - | 702 W/m² | - |
| 1777399212 | 25.56° C | 23% | 1017.9 hPa | 0 mm | - | 697 W/m² | - |
| 1777398910 | 25° C | 23% | 1018 hPa | 0 mm | - | 691 W/m² | - |
| 1777398606 | 25.56° C | 23% | 1017.9 hPa | 0 mm | - | 689 W/m² | - |
| 1777398303 | 25° C | 24% | 1018.1 hPa | 0 mm | - | 681 W/m² | - |
| 1777398000 | 25° C | 23% | 1018.1 hPa | 0 mm | - | 668 W/m² | - |
| 1777397696 | 25° C | 23% | 1018 hPa | 0 mm | - | 649 W/m² | - |
| 1777397392 | 25° C | 23% | 1018 hPa | 0 mm | - | 653 W/m² | - |
| 1777397089 | 24.44° C | 24% | 1018.1 hPa | 0 mm | - | 645 W/m² | - |
| 1777396785 | 24.44° C | 23% | 1018.2 hPa | 0 mm | - | 620 W/m² | - |
| 1777396483 | 25° C | 23% | 1018.3 hPa | 0 mm | - | 624 W/m² | - |
| 1777396179 | 24.44° C | 24% | 1018 hPa | 0 mm | - | 614 W/m² | - |
| 1777395875 | 24.44° C | 24% | 1018.4 hPa | 0 mm | - | 596 W/m² | - |
* Rain latest hour (hover to see other rain measurements)
** Current wind speed in m/s (hover to see current wind gust speed)